This is the latest recevied weather packets stored in our database for station/object W0WFX-2. If no packets are shown the sender has not sent any weather packets the latest 10 day(s).
| Time | Temp. | Humidity | Pressure | Rain* | Wind** | Luminosity | Snow |
|---|---|---|---|---|---|---|---|
| 1788309317 | 32.22° C | 47% | 1013.2 hPa | 0 mm | - | 10 W/m² | - |
| 1788309012 | 32.78° C | 44% | 1013.2 hPa | 0 mm | - | 13 W/m² | - |
| 1788308708 | 32.78° C | 43% | 1013.3 hPa | 0 mm | - | 16 W/m² | - |
| 1788308402 | 33.33° C | 42% | 1013.2 hPa | 0 mm | - | 20 W/m² | - |
| 1788308096 | 33.89° C | 41% | 1013.5 hPa | 0 mm | - | 23 W/m² | - |
| 1788307792 | 33.89° C | 39% | 1013.4 hPa | 0 mm | - | 27 W/m² | - |
| 1788307487 | 33.89° C | 39% | 1013.3 hPa | 0 mm | - | 30 W/m² | - |
| 1788307182 | 34.44° C | 38% | 1013.5 hPa | 0 mm | - | 33 W/m² | - |
| 1788306877 | 34.44° C | 37% | 1013.4 hPa | 0 mm | - | 36 W/m² | - |
| 1788306572 | 35° C | 37% | 1013.4 hPa | 0 mm | - | 39 W/m² | - |
| 1788306271 | 35° C | 37% | 1013.6 hPa | 0 mm | - | 42 W/m² | - |
| 1788305967 | 35° C | 36% | 1013.5 hPa | 0 mm | - | 46 W/m² | - |
| 1788305662 | 35.56° C | 35% | 1013.4 hPa | 0 mm | - | 47 W/m² | - |
| 1788305359 | 35.56° C | 35% | 1013.6 hPa | 0 mm | - | 50 W/m² | - |
| 1788305058 | 35.56° C | 36% | 1013.6 hPa | 0 mm | - | 52 W/m² | - |
| 1788304754 | 35.56° C | 34% | 1013.4 hPa | 0 mm | - | 69 W/m² | - |
| 1788304450 | 35.56° C | 34% | 1013.3 hPa | 0 mm | - | 55 W/m² | - |
| 1788304146 | 36.11° C | 34% | 1013.4 hPa | 0 mm | - | 59 W/m² | - |
| 1788303846 | 36.11° C | 33% | 1013.4 hPa | 0 mm | - | 59 W/m² | - |
| 1788303541 | 36.11° C | 33% | 1013.4 hPa | 0 mm | - | 64 W/m² | - |
| 1788303240 | 36.11° C | 32% | 1013.5 hPa | 0 mm | - | 69 W/m² | - |
| 1788302935 | 36.11° C | 33% | 1013.3 hPa | 0 mm | - | 65 W/m² | - |
| 1788302632 | 36.67° C | 33% | 1013.5 hPa | 0 mm | - | 67 W/m² | - |
| 1788302328 | 36.67° C | 32% | 1013.6 hPa | 0 mm | - | 68 W/m² | - |
| 1788302023 | 36.67° C | 32% | 1013.5 hPa | 0 mm | - | 70 W/m² | - |
* Rain latest hour (hover to see other rain measurements)
** Current wind speed in m/s (hover to see current wind gust speed)